Tracking 27380 objects as of 5-Jun-2023
HD Live streaming from Space Station
objects crossing your sky now

FENGYUN 1C DEB

Track FENGYUN 1C DEB now!
10-day predictions


NORAD ID: 30357
Int'l Code: 1999-025ABU
Perigee: 848.7 km
Apogee: 921.8 km
Inclination: 98.9 °
Period: 102.5 minutes
Semi major axis: 7256 km
RCS: 0.042 m2 (small)
Launch date: May 10, 1999
Source: People's Republic of China (PRC)
Launch site: Taiyaun Space Center, China (TSC)

Note: This is SATELLITE DEBRIS
Your satellite tracking list
Your tracking list is empty




NASA's NSSDC Master Catalog

Two Line Element Set (TLE):
1 30357U 99025ABU 23156.58107528  .00000185  00000-0  14160-3 0  9995
2 30357  98.9115 194.5036 0050319  27.5155 124.6246 14.04544539838726
Source of the keplerian elements: AFSPC